Other Public Products
Issued by NWS Grand Forks, ND

Home | Current Version | Previous Version | Text Only | Print | Product List | Glossary Off
Versions: 1 2 3 4 5 6 7 8 9 10 11 12 13 14 15 16 17 18 19 20 21 22 23 24 25 26 27 28 29 30 31 32 33 34 35 36 37 38 39 40 41 42 43 44 45 46 47 48 49 50

000
FPUS83 KFGF 061931
OPUFGF
PRAIRIE TO PINES WEATHER ROUNDUP
NATIONAL WEATHER SERVICE EASTERN NORTH DAKOTA/GRAND FORKS ND
100 PM CST FRI MAR 06 2015

 **SATELLITE DATA USED TO AUGMENT SKY COVER AT AUTOMATED STATIONS**
 *****  WEATHER ACROSS EASTERN NORTH DAKOTA  *****

CITY           SKY/WX    TMP DP  RH WIND       PRES   REMARKS
GRAND FORKS    PTSUNNY   35  17  47 W8        30.06F
GRAND FORKS AF MOSUNNY   36  15  42 W10       30.05F
GRAND CITY NWS   N/A     36 N/A N/A NW13        N/A
BUXTON           N/A     35  19  52 W7          N/A
DEVILS LAKE    MOSUNNY   30  21  69 SW12      30.03F WCI  21
FARGO          MOSUNNY   35  18  49 NW12      30.09S
WAHPETON ARPT  CLEAR     34  18  51 NW13G18   30.09F WCI  25
$$

 *****  WEATHER ACROSS CENTRAL AND WESTERN NORTH DAKOTA  *****

CITY           SKY/WX    TMP DP  RH WIND       PRES   REMARKS
JAMESTOWN      MOSUNNY   34  19  54 W9        30.07S
BISMARCK       CLOUDY    38  16  40 SW7       30.08F
MINOT          CLOUDY    35  17  47 S16       29.99F
MINOT AFB      MOSUNNY   34  22  60 SW12      29.97F
GARRISON         N/A     34  22  61 SW9       30.03F
WILLISTON      PTSUNNY   41  24  51 SW16      29.99F
DICKINSON      CLOUDY    50  18  28 W16       30.01F
HETTINGER      PTSUNNY   52  18  26 W18G24    30.06F
$$

 *****  OTHER OBSERVATIONS NORTHEAST NORTH DAKOTA  *****

CITY           SKY/WX    TMP DP  RH WIND       PRES   REMARKS
WALHALLA         N/A     32  19  59 W10G20    29.99F WCI  24
LANGDON        NOT AVBL
CAVALIER       FAIR      32  18  55 SW10      30.01F WCI  24
GRAFTON        NOT AVBL
CANDO          CLOUDY    32  23  69 W14       30.00F WCI  22
FORT TOTTEN      N/A     34  19  54 W7        29.95
ROLLA          MOCLDY    30  18  59 SW21G26   29.96F WCI  17
RUGBY          FAIR      32  23  69 SW14      30.00F WCI  22
 ***** THE ABOVE OBSERVATIONS ARE NON NWS ARE NOT QUALITY
        CONTROLLED AND MAY MIS-REPORT RAIN FOR SNOW...
$$

 *****  OTHER OBSERVATIONS SOUTHEAST NORTH DAKOTA *****

CITY           SKY/WX    TMP DP  RH WIND       PRES   REMARKS
COOPERSTOWN    NOT AVBL
VALLEY CITY    FAIR      34  19  55 NW10      30.06F
OAKES            N/A     32  21  64 W13       30.10F WCI  22
GWINNER        CLEAR     36  21  55 NW13      30.10F
SHEYENNE NWR     N/A     34  19  53 W9        29.95S
BUFFALO        NOT AVBL
WYNDMERE         N/A     34  19  55 NW12        N/A
 ***** THE ABOVE OBSERVATIONS ARE NON NWS ARE NOT QUALITY
       CONTROLLED AND MAY MIS-REPORT RAIN FOR SNOW...
$$

  *****  WEATHER ACROSS NORTHERN MINNESOTA  *****

CITY           SKY/WX    TMP DP  RH WIND       PRES   REMARKS
FLAG ISLAND    SUNNY     30  10  43 W13       29.94F WCI  20
WARROAD        SUNNY     28  18  64 SW15      29.99S WCI  17
ROSEAU         SUNNY     30  18  59 W10       30.00S WCI  21
HALLOCK        SUNNY     32  21  64 W10       30.02F WCI  24
THF RVR FALLS  SUNNY     28  18  64 W9        30.04F WCI  20
HALSTAD          N/A     34  16  47 NW9         N/A
FOSSTON        SUNNY     28  16  59 W8        30.05F WCI  20
BAUDETTE       SUNNY     27  12  53 W12       29.97S WCI  17
WASKISH        SUNNY     30  18  59 CALM      29.99F
CROOKSTON      SUNNY     32  18  55 W7        30.07F
$$
  *****  WEATHER ACROSS CENTRAL AND WEST MINNESOTA  *****

CITY           SKY/WX    TMP DP  RH WIND       PRES   REMARKS
BEMIDJI        SUNNY     28  14  55 W14G21    30.02S WCI  17
PARK RAPIDS    SUNNY     30  13  49 NW16      30.02S WCI  19
WADENA         SUNNY     28  14  54 NW15      30.04F WCI  17
DETROIT LAKES  SUNNY     32  19  59 NW13      30.06F WCI  22
MOORHEAD       SUNNY     36  18  48 NW12      30.09F
FERGUS FALLS   SUNNY     30  16  55 NW12      30.11F WCI  21
ELBOW LAKE     FAIR      29  18  63 W10       30.08F WCI  20
MORRIS MN      SUNNY     30  19  64 NW10      30.09F WCI  21
STAPLES        SUNNY     30  12  47 NW15      30.03F WCI  19
WHEATON        SUNNY     28  18  64 W10       30.13F WCI  19
$$
  *****  WEATHER ELSEWHERE ACROSS MINNESOTA  *****

CITY           SKY/WX    TMP DP  RH WIND       PRES   REMARKS
DULUTH         SUNNY     29  11  47 NW16G23   29.94R WCI  17
INTRNTL FALLS  SUNNY     27   9  46 W17       29.96S WCI  14
ELY            SUNNY     28   9  43 W12G20    29.90S WCI  18
CLOQUET        SUNNY     30  10  43 W17G23    29.95F WCI  18
BRAINERD       SUNNY     31  11  43 NW10      30.02S WCI  22
HIBBING        SUNNY     28  11  48 NW15      29.95S WCI  16
ALEXANDRIA     SUNNY     29  13  51 NW12      30.06F WCI  19
SAINT CLOUD    SUNNY     32  14  47 N13       30.04S WCI  22
MINNEAPOLIS    SUNNY     36  17  46 NW12      30.04F
$$

  *****  WEATHER ACROSS SOUTH DAKOTA  *****

CITY           SKY/WX    TMP DP  RH WIND       PRES   REMARKS
SIOUX FALLS    CLOUDY    45  23  42 NW14      30.12S
BROOKINGS      NOT AVBL
WATERTOWN      SUNNY     30  18  60 NW10      30.11S WCI  21
HURON          MOSUNNY   37  20  50 NW8       30.15F
SISSETON         N/A     34  19  54 NW12      30.10F
ABERDEEN       PTSUNNY   36  19  50 NW12      30.12F
MITCHELL       MOSUNNY   45  20  36 N14       30.16S
PIERRE         PTSUNNY   48  21  34 SW6       30.12F
MOBRIDGE       PTSUNNY   42  16  34 CALM      30.08F
RAPID CITY     MOSUNNY   56  18  22 N20G26    30.12F
$$

  *****  SOME WEATHER IN NEARBY STATES *****

CITY           SKY/WX    TMP DP  RH WIND       PRES   REMARKS
GLASGOW MT     PTSUNNY   51  24  34 W14       30.04R
GREAT FALLS MT MOSUNNY   56  18  22 W22G31    30.17R
CHEYENNE WY    SUNNY     46  16  30 W15G25    30.27S
SCOTTSBLUFF NE SUNNY     55  17  22 W12G21    30.24S
OMAHA NE       MOSUNNY   55  20  25 SW9       30.18F
DES MOINES IA  MOSUNNY   48  21  34 W12       30.18F
DAVENPORT IA   SUNNY     30  16  56 SW15      30.22F WCI  19
CHICAGO IL     MOSUNNY   23   9  55 S18       30.26F WCI   9
EAU CLAIRE WI  SUNNY     27  12  53 W10       30.03F WCI  17
LA CROSSE WI   PTSUNNY   30  16  56 S15       30.10F WCI  19
$$

  *****  SOME NATIONAL WEATHER *****

CITY           SKY/WX    TMP DP  RH WIND       PRES   REMARKS
LA GUARDIA NY  SUNNY     26   2  35 CALM      30.48F
RALEIGH NC     MOSUNNY   36  15  42 CALM      30.45F
ATLANTA GA     PTSUNNY   48  33  56 CALM      30.39F
NEW ORLEANS LA PTSUNNY   48  20  32 N13       30.47F
OKLAHOMA CITY  SUNNY     54  26  34 SW20G25   30.44F
ALBUQUERQUE NM SUNNY     51  14  22 NW8       30.39F
SALT LAKE CITY MOSUNNY   49  23  36 CALM      30.45F
LOS ANGELES CA SUNNY     75  20  12 CALM      30.12F
BOISE ID       SUNNY     51  23  33 SW3       30.45F
SEATTLE WA     PTSUNNY   52  35  52 CALM      30.43F
$$

*** WEATHER ACROSS MANITOBA...SASKATCHEWAN AND ONTARIO ***
                ***ONTARIO***

CITY           SKY/WX    TMP DP  RH WIND       PRES   REMARKS
GERALDTON      MOSUNNY   19   7  58 W8G22     29.74S WCI   9
THUNDER BAY    MOSUNNY   28  10  47 W13G21    29.84F WCI  18
SIOUX LOOKOUT  MOSUNNY   23   7  50 NW17G26   29.85R WCI   9
TORONTO        PTSUNNY   21   5  49 SW15G22   30.35F WCI   8
BIG TROUT LK   PTSUNNY   10   0  61 NW17      29.73S WCI  -7
PICKLE LAKE    MOSUNNY   21   3  45 W15       29.71F WCI   8
DRYDEN         SUNNY     25   9  50 W16G25    29.87S WCI  12
KENORA         MOSUNNY   28   9  43 W8G17     29.91F WCI  20
$$
                *** MANITOBA***

CITY           SKY/WX    TMP DP  RH WIND       PRES   REMARKS
BRANDON        PTSUNNY   30  18  59 SW22G28   29.93F WCI  17
DAUPHIN        PTSUNNY   37  21  52 W21G26    29.81F
ISLAND LAKE    MOSUNNY   12  -2  52 W9        29.82R WCI   0
PILOT MOUND      N/A     30  21  69 SW14        N/A  WCI  20
THE PAS        CLOUDY    23  19  86 SE8       29.74S WCI  14
THOMPSON       FLURRIES   9  -2  61 W6        29.82R WCI  -1
WINNIPEG       MOSUNNY   28  16  59 SW12      29.97F WCI  18
LYNN LAKE      LGT SNOW  10   5  79 CALM      29.79S
CHURCHILL      CRYSTALS -11 -17  77 W8        29.86R WCI -28
GILLAM         MOSUNNY    0 -11  60 W7        29.84R WCI -13
$$
                ***SASKATCHEWAN***

CITY           SKY/WX    TMP DP  RH WIND       PRES   REMARKS
ESTEVAN        PTSUNNY   36  25  64 SW15      29.91F
KINDERSLEY     MOSUNNY   39  28  65 W16G22    29.95
LLOYDMINSTER   PTSUNNY   37  34  87 NW18G24   29.92R
PRINCE ALBERT  MOSUNNY   37  30  75 W13       29.79R
REGINA         MOSUNNY   36  28  75 W17       29.86F


USA.gov is the U.S. government's official web portal to all federal, state and local government web resources and services.